Location: Wiesbaden
(50.0830°N, 8.2500°E)
Time: 05:06:25
(UTC+02:00)

ISS - Pass Details

Date: 28 March 2020
Orbit: 417 x 423 km, 51.6° (Epoch: 29 March)

Event Time Altitude Azimuth Distance (km) Brightness Sun altitude
Rises 19:52:41 0° 276° (W) 2,360 2.0 -10.1°
Reaches altitude 10° 19:54:48 10° 279° (W) 1,497 0.6 -10.4°
Maximum altitude 19:58:08 65° 2° (N) 465 -3.5 -11.0°
Enters shadow 20:00:42 16° 83° (E) 1,185 -2.0 -11.3°
